Regional Weather Roundup
Issued by NWS Cleveland, OH

Home | Current Version | Previous Version | Text Only | Print | Product List | Glossary Off
Versions: 1 2 3 4 5 6 7 8 9 10 11 12 13 14 15 16 17 18 19 20 21 22 23 24 25 26 27 28 29 30 31 32 33 34 35 36 37 38 39 40 41 42 43 44 45 46 47 48 49 50

000
ASUS41 KCLE 231000
RWRCLE
OHIO REGIONAL WEATHER ROUNDUP
NATIONAL WEATHER SERVICE WILMINGTON, OH
600 AM EDT THU MAR 23 2017

NOTE: "FAIR" INDICATES FEW OR NO CLOUDS BELOW 12,000 FEET WITH NO
SIGNIFICANT WEATHER AND/OR OBSTRUCTIONS TO VISIBILITY.

OHZ001>008-015>018-024>027-034-035-043-044-231100-
   NORTHWEST OHIO

CITY           SKY/WX    TMP DP  RH WIND       PRES   REMARKS
DEFIANCE       FAIR      19  13  77 E5        30.51F WCI  12
FINDLAY        FAIR      22  14  71 E6        30.50S WCI  14
TOLEDO EXPRESS FAIR      20  14  77 CALM      30.51F
TOLEDO EXEC    FAIR      21  15  78 SE5       30.53F WCI  15
LIMA           FAIR      21  16  81 E7        30.48F WCI  12
$$

OHZ009>014-019>023-028>033-038-089-231100-
   NORTHEAST OHIO

CITY           SKY/WX    TMP DP  RH WIND       PRES   REMARKS
CLE-HOPKINS    FAIR      19  12  74 S5        30.57S WCI  12
CLE-LAKEFRONT  FAIR      24  15  68 SE6       30.55S WCI  17
CUY CO. ARPT   NOT AVBL
LORAIN-ELYRIA  FAIR      18  13  80 S6        30.54S WCI  10
ASHTABULA      FAIR      17  14  88 CALM      30.55S
AKRON-CANTON   FAIR      20  10  65 E7        30.52R WCI  11
WOOSTER        NOT AVBL
MANSFIELD      FAIR      19  13  77 E9        30.49S WCI   8
YOUNGSTOWN     FAIR      16  11  80 CALM      30.52S
$$

OHZ042-051>053-060>062-070>072-077>081-231100-
  SOUTHWEST OHIO

CITY           SKY/WX    TMP DP  RH WIND       PRES   REMARKS
CINC-COVINGTON FAIR      29  17  61 E10       30.42F WCI  20
CINC-LUNKEN    FAIR      27  19  72 NE6       30.47F WCI  20
HAMILTON       FAIR      26  18  71 E5        30.47F WCI  20
DAYTON         NOT AVBL
WRIGHT-PAT AFB FAIR      24  15  69 E8        30.47F WCI  15
DAYTON GENERAL FAIR      26  16  65 E9        30.44F WCI  17
WILMINGTON     FAIR      25  17  72 E9        30.45S WCI  15
$$

OHZ036-037-039>041-045>050-054>059-063>069-073>076-082>088-231100-
  CENTRAL AND SOUTHEAST OHIO

CITY           SKY/WX    TMP DP  RH WIND       PRES   REMARKS
COLUMBUS       FAIR      25  12  58 E8        30.51R WCI  16
OSU AIRPORT    FAIR      20  13  74 E5        30.50S WCI  13
BOLTON FIELD   NOT AVBL
RICKENBACK AFB NOT AVBL
NEWARK         FAIR      23  12  62 E7        30.52R WCI  15
MARION         FAIR      19  11  70 SE7       30.50S WCI  10
LANCASTER      FAIR      25  14  63 E5        30.52R WCI  19
ZANESVILLE     FAIR      22  10  60 NE6       30.53R WCI  14
NEW PHILLY     FAIR      18  13  80 CALM      30.56R
$$



USA.gov is the U.S. government's official web portal to all federal, state and local government web resources and services.